Content
SEND FEEDBACK

Daily
Averages
Monthly
Summary
United States of America

TALENT, OREGON


Home > North America > United States > Oregon
Elevation: 1451 feet     Latitude: 42 18N     Longitude: 122 52W

WEATHER
 
SELECT A DAY
Number of Records: 198,268;   Date Range: 1/1/95 - 7/7/14
 
SHARE

PRINT THIS DATA

[ ← Previous Day ]
WEATHER ALMANAC - FEBRUARY 5, 2013
[ Next Day → ]
[ °C ]   °F
Weather ElementAverageHighLow
Temperature37.5 °F46.9 °F (3:53 pm)32 °F (7:53 am)
Dewpoint35.5 °F41 °F (3:06 pm)32 °F (3:35 am)
Humidity92.9 %100 % (3:21 am)77 % (4:53 pm)
Barometer30.06 in30.17 in (9:53 pm)30.02 in (3:21 am)
Wind Speed1.1 mph5.8 mph (9:38 am)
Weather ElementAverage
Visibility3.5 mi
Wind DirectionENE (55.8 °)

Weather ElementTotal
Precipitation0.06 in
Heating Degree Days25.6 (Base 65)
Averaged from 48 records on February 5, 2013
WEATHER CONDITIONS BREAKOUT
WIND DIRECTION BREAKOUT
WEATHER BY HOUR - FEBRUARY 5, 2013
[ °C ]   °F
Local TimeTemperatureDewpointHumidityBarometerVisibilityWind DirectionWind SpeedGust SpeedPrecipitationEventsConditions
1:53 AM35.1 °F34.0 °F96 %30.05 in5.0 miCalmClear
2:53 AM34.0 °F33.1 °F96 %30.04 in4.0 miCalmClear
3:21 AM33.8 °F33.8 °F100 %30.02 in3.0 miCalmScattered Clouds
3:25 AM33.8 °F33.8 °F100 %30.02 in2.5 miCalmMostly Cloudy
3:35 AM33.8 °F32.0 °F93 %30.02 in2.5 miCalmMostly Cloudy
3:45 AM33.8 °F32.0 °F93 %30.02 in2.5 miCalmOvercast
3:48 AM33.8 °F32.0 °F93 %30.02 in0.8 miCalmOvercast
3:53 AM34.0 °F32.0 °F92 %30.04 in0.2 miCalmFogFog
4:02 AM33.8 °F32.0 °F93 %30.02 in0.2 miCalmFogFog
4:09 AM33.8 °F33.8 °F100 %30.02 in0.2 miCalmFogFog
4:11 AM33.8 °F33.8 °F100 %30.02 in0.2 miCalmFogFog
4:49 AM33.8 °F32.0 °F93 %30.03 in0.2 miCalmFogFog
4:53 AM33.1 °F32.0 °F96 %30.05 in0.2 miCalmFogFog
5:21 AM33.8 °F33.8 °F100 %30.03 in0.2 miCalmFogFog
5:49 AM33.8 °F32.0 °F93 %30.03 in0.2 miCalmFogFog
5:53 AM33.1 °F32.0 °F96 %30.05 in0.2 miCalmFogFog
6:06 AM33.8 °F33.8 °F100 %30.03 in0.2 miCalmFogFog
6:18 AM33.8 °F33.8 °F100 %30.03 in0.2 miCalmFogFog
6:53 AM33.1 °F32.0 °F96 %30.05 in0.2 miNorth (360°)4.6 mphFogFog
7:53 AM32.0 °F32.0 °F100 %30.06 in0.2 miESE (110°)3.5 mphFogFog
8:00 AM33.8 °F32.0 °F93 %30.03 in0.2 miESE (120°)4.6 mphFogFog
8:53 AM34.0 °F34.0 °F100 %30.07 in0.2 miCalmFogFog
9:12 AM35.6 °F35.6 °F100 %30.05 in0.2 miCalmFogFog
9:22 AM35.6 °F35.6 °F100 %30.05 in0.8 miCalmOvercast
9:31 AM35.6 °F35.6 °F100 %30.06 in1.2 miEast (90°)3.5 mphOvercast
9:38 AM35.6 °F35.6 °F100 %30.05 in0.8 miEast (90°)5.8 mphOvercast
9:53 AM36.0 °F35.1 °F97 %30.08 in0.8 miSE (140°)3.5 mphOvercast
9:58 AM35.6 °F35.6 °F100 %30.06 in2.0 miCalm0.00 inRainLight Rain
10:05 AM37.4 °F35.6 °F93 %30.06 in4.0 miSW (220°)3.5 mph0.00 inRainLight Rain
10:26 AM37.4 °F37.4 °F100 %30.06 in3.0 miWSW (240°)3.5 mph0.00 inRainLight Rain
10:53 AM37.9 °F36.0 °F93 %30.09 in4.0 miWest (260°)4.6 mph0.01 inRainLight Rain
11:53 AM41.0 °F37.9 °F89 %30.08 in4.0 miCalm0.01 inRainLight Rain
12:53 PM42.1 °F37.9 °F85 %30.07 in7.0 miCalm0.00 inOvercast
1:01 PM42.8 °F37.4 °F81 %30.05 in6.0 miCalm0.00 inRainLight Rain
1:12 PM42.8 °F39.2 °F87 %30.05 in4.0 miCalm0.01 inRainLight Rain
1:53 PM44.1 °F39.9 °F85 %30.07 in7.0 miCalm0.01 inRainLight Rain
2:53 PM45.0 °F39.9 °F82 %30.07 in10.0 miCalm0.00 inMostly Cloudy
3:06 PM46.4 °F41.0 °F81 %30.04 in10.0 miCalmScattered Clouds
3:53 PM46.9 °F41.0 °F80 %30.07 in10.0 miCalmPartly Cloudy
4:53 PM46.9 °F39.9 °F77 %30.08 in10.0 miCalmOvercast
5:53 PM46.0 °F39.9 °F79 %30.09 in10.0 miCalmMostly Cloudy
6:53 PM45.0 °F41.0 °F86 %30.11 in9.0 miWest (260°)4.6 mphOvercast
7:53 PM44.1 °F39.9 °F85 %30.14 in6.0 miNorth (350°)4.6 mph0.01 inRainLight Rain
8:53 PM43.0 °F39.9 °F89 %30.14 in10.0 miESE (110°)3.5 mph0.01 inOvercast
9:53 PM39.9 °F37.0 °F89 %30.17 in10.0 miCalmMostly Cloudy
10:53 PM39.2 °F37.4 °F93 %30.14 in10.0 miCalmMostly Cloudy
11:42 PM37.4 °F35.6 °F93 %30.15 in2.0 miNNW (330°)3.5 mphMostly Cloudy
11:53 PM37.9 °F36.0 °F93 %30.17 in4.0 miCalmMostly Cloudy
Hourly data recorded from KMFR, located miles away from Talent, Oregon







STORIES FROM OUR PARTNERS